DW9907 Weather Reports


Display with metric or nautical units.
time (UTC)temp
F
wind
direction
speed
MPH
gust
MPH
rain 1hr
in
rain 24hr
in
rain mn
in
humidity
%
barometer
mb
20260507113031 36 185 7.0 14.0 0.00 0.02 0.00 93 1017.1
20260507111532 35 185 8.0 12.0 0.00 0.02 0.00 92 1017.1
20260507110034 35 185 7.0 11.0 0.00 0.02 0.00 92 1017.1
20260507104530 36 185 5.0 10.0 0.00 0.02 0.00 92 1017.3
20260507103031 36 185 8.0 11.0 0.00 0.02 0.00 91 1017.5
20260507101532 37 185 5.0 12.0 0.00 0.02 0.00 92 1017.5
20260507100036 37 185 5.0 11.0 0.00 0.02 0.00 91 1017.6
20260507094529 37 185 7.0 12.0 0.00 0.02 0.00 91 1017.7
20260507093037 38 185 6.0 13.0 0.00 0.02 0.00 91 1017.8
20260507091538 38 185 7.0 12.0 0.00 0.02 0.00 91 1018.1
20260507090030 39 185 6.0 11.0 0.00 0.02 0.00 91 1018.2
20260507084534 39 185 6.0 11.0 0.00 0.03 0.00 91 1018.2
20260507083030 39 185 7.0 12.0 0.00 0.03 0.00 91 1018.4
20260507081529 39 185 7.0 12.0 0.00 0.03 0.00 90 1018.6
20260507080032 40 185 6.0 10.0 0.00 0.03 0.00 90 1018.7
20260507074530 41 185 6.0 10.0 0.00 0.04 0.00 89 1018.8
20260507073029 41 185 4.0 10.0 0.00 0.04 0.00 89 1018.9
20260507071531 42 185 4.0 9.0 0.00 0.04 0.00 88 1019.2
20260507070034 43 185 4.0 12.0 0.00 0.04 0.00 88 1019.2
20260507064531 44 185 7.0 12.0 0.00 0.10 0.00 88 1019.4
20260507063043 44 185 6.0 11.0 0.00 0.10 0.00 88 1019.4
20260507061532 44 185 9.0 13.0 0.00 0.10 0.00 88 1019.6
20260507060041 44 185 7.0 11.0 0.00 0.10 0.00 88 1019.6
20260507054531 45 185 7.0 11.0 0.00 0.16 0.00 88 1019.6
20260507053030 45 185 6.0 11.0 0.00 0.16 0.00 88 1019.5
20260507051532 45 185 7.0 12.0 0.00 0.16 0.00 87 1019.6
20260507050035 45 185 8.0 12.0 0.00 0.16 0.00 87 1019.8
20260507044528 45 185 6.0 11.0 0.00 0.18 0.16 87 1019.9
20260507043028 45 185 5.0 9.0 0.00 0.18 0.16 88 1019.9
20260507041531 45 185 4.0 9.0 0.00 0.18 0.16 87 1020.0
20260507040033 44 185 5.0 9.0 0.00 0.18 0.16 86 1019.8
20260507034535 45 185 4.0 8.0 0.00 0.19 0.16 84 1019.9
20260507033029 45 185 4.0 10.0 0.00 0.19 0.16 82 1019.7
20260507031530 46 185 5.0 9.0 0.00 0.19 0.16 81 1019.5
20260507030028 47 185 4.0 8.0 0.00 0.19 0.16 81 1019.5
20260507024530 47 185 1.0 3.0 0.00 0.19 0.16 79 1018.7
20260507023031 47 0 0.0 1.0 0.00 0.19 0.16 79 1018.6
20260507021531 47 0 0.0 2.0 0.00 0.19 0.16 78 1018.8
20260507020039 48 185 1.0 4.0 0.00 0.19 0.16 78 1018.7
20260507014530 48 185 2.0 4.0 0.00 0.19 0.16 77 1018.8
20260507013044 48 185 1.0 2.0 0.00 0.19 0.16 75 1018.7
20260507011528 48 185 2.0 4.0 0.00 0.19 0.16 72 1018.3
20260507010036 49 185 3.0 5.0 0.00 0.19 0.16 71 1018.2
20260507004531 49 185 2.0 4.0 0.00 0.19 0.16 70 1018.1
20260507003031 49 185 2.0 5.0 0.00 0.19 0.16 69 1018.1
20260507001531 49 185 3.0 9.0 0.00 0.19 0.16 69 1018.1
20260507000030 50 185 3.0 10.0 0.00 0.19 0.16 68 1018.3
20260506234535 51 185 5.0 10.0 0.00 0.19 0.16 67 1017.8
20260506233044 51 185 1.0 6.0 0.00 0.19 0.16 65 1017.6
20260506231530 51 0 1.0 5.0 0.00 0.19 0.16 65 1018.0
20260506230029 51 0 0.0 5.0 0.00 0.19 0.16 65 1017.6
20260506224530 50 185 2.0 9.0 0.00 0.19 0.16 65 1017.6
20260506223027 50 185 1.0 4.0 0.00 0.19 0.16 67 1017.7
20260506221530 50 185 1.0 6.0 0.00 0.19 0.16 69 1017.9
20260506220031 49 185 3.0 6.0 0.00 0.19 0.16 70 1017.9
20260506214529 49 185 4.0 10.0 0.00 0.19 0.16 70 1017.9
20260506213030 49 0 1.0 9.0 0.00 0.19 0.16 71 1017.9
20260506211530 48 185 3.0 9.0 0.00 0.19 0.16 71 1018.0
20260506210035 48 185 3.0 9.0 0.00 0.19 0.16 73 1018.1
20260506204534 48 185 5.0 10.0 0.00 0.19 0.16 75 1018.4
20260506203030 48 185 4.0 10.0 0.00 0.19 0.16 74 1018.3
20260506201532 48 185 3.0 8.0 0.00 0.19 0.16 76 1018.3
20260506200040 47 185 3.0 11.0 0.00 0.19 0.16 77 1018.3
20260506194530 47 185 5.0 13.0 0.00 0.19 0.16 76 1018.4
20260506193031 47 185 8.0 14.0 0.00 0.19 0.16 78 1018.3
20260506191531 47 185 8.0 14.0 0.00 0.19 0.16 81 1018.6
20260506190029 46 185 5.0 12.0 0.00 0.19 0.16 85 1018.7
20260506184533 45 185 6.0 12.0 0.00 0.19 0.16 86 1018.8
20260506183035 44 185 7.0 16.0 0.00 0.19 0.16 86 1019.1
20260506181528 45 185 5.0 10.0 0.00 0.19 0.16 88 1019.1
20260506180028 44 185 8.0 14.0 0.00 0.19 0.16 88 1019.1
20260506174529 44 185 5.0 14.0 0.00 0.19 0.16 88 1019.1
20260506173033 45 185 9.0 15.0 0.00 0.19 0.16 87 1019.2
20260506171529 45 185 5.0 12.0 0.00 0.19 0.16 88 1019.1
20260506170030 45 185 5.0 10.0 0.00 0.19 0.16 89 1019.0
20260506164527 45 185 4.0 12.0 0.00 0.19 0.16 91 1018.9
20260506163030 44 185 9.0 12.0 0.00 0.19 0.16 93 1018.6
20260506161528 44 185 5.0 10.0 0.00 0.19 0.16 93 1018.6
20260506160028 43 185 4.0 9.0 0.00 0.19 0.16 93 1018.7
20260506154533 43 185 3.0 8.0 0.01 0.19 0.16 93 1018.4
20260506153031 42 185 3.0 10.0 0.02 0.19 0.16 93 1018.3
20260506151528 42 185 7.0 10.0 0.02 0.19 0.16 93 1018.4
20260506150028 41 185 7.0 10.0 0.02 0.19 0.16 93 1018.1
20260506144532 42 185 3.0 8.0 0.01 0.18 0.15 94 1018.1
20260506143034 42 185 5.0 8.0 0.00 0.17 0.14 94 1018.2
20260506141529 41 185 3.0 5.0 0.00 0.17 0.14 94 1018.5
20260506140029 41 185 1.0 5.0 0.00 0.17 0.14 94 1018.6
20260506134530 41 0 2.0 5.0 0.00 0.17 0.14 94 1018.3
20260506133032 41 185 1.0 4.0 0.00 0.17 0.14 94 1018.2
20260506131536 41 185 0.0 3.0 0.00 0.17 0.14 94 1018.2
20260506130029 41 0 0.0 3.0 0.00 0.17 0.14 94 1017.6
20260506124536 41 185 0.0 8.0 0.00 0.17 0.14 94 1017.5
20260506123039 40 185 3.0 8.0 0.00 0.17 0.14 94 1016.8
20260506121530 40 185 2.0 6.0 0.00 0.17 0.14 94 1016.7
20260506120052 40 185 4.0 9.0 0.00 0.17 0.14 94 1016.6
20260506114532 40 185 1.0 6.0 0.00 0.17 0.14 93 1016.5